Volver al catálogo

SL-16 DEB

ActivoLEO
NORAD 20626·DEBRIS·🇷🇺 Russia

Lanzado May 22, 1990 desde Baikonur Cosmodrome

Loading…

Próximos Pases (próximas 24 horas)

TLE

ActualizadoSource: Space-Track

Época: Sep 14, 2026, 09:18 UTC

1 20626U 90046C   26257.38771492 -.00000027  00000-0  14273-4 0  9999
2 20626  71.0172  31.6840 0206031  16.8124  14.2778 13.72982582818342

Sigue SL-16 DEB en tiempo real con AllMySat

Download on the App Store